Location: Kearney
(40.6990°N, 99.0810°W)
Time: 00:39:40
(UTC-05:00)

Meteor 1-22 Rocket - Pass Details

Date: 18 December 2017
Orbit: 787 x 941 km, 81.2° (Epoch: 25 April)

Event Time Altitude Azimuth Distance (km) Brightness Sun altitude
Rises 19:39:18 0° 349° (N) 3,556 7.5 -27.2°
Reaches altitude 10° 19:41:49 10° 349° (N) 2,591 6.7 -27.6°
Maximum altitude 19:47:43 84° 263° (W) 887 4.2 -28.8°
Drops below altitude 10° 19:53:21 10° 175° (S) 2,469 6.6 -29.8°
Sets 19:55:42 0° 175° (S) 3,378 7.3 -30.3°
